Welcome to the New NWS' Forecast!
Most changes are behind the scenes, but click here for differences you might notice.

Regional Weather Roundup (RWR)

Issued by Little Rock, AR (LZK)

                            
531 
ASUS44 KLZK 250612
RWRLZK

WEATHER ROUNDUP FOR ARKANSAS
NATIONAL WEATHER SERVICE LITTLE ROCK AR
100 AM CDT SUN JUN 25 2017

NOTE: "FAIR" INDICATES FEW OR NO CLOUDS BELOW 12,000 FEET WITH NO
SIGNIFICANT WEATHER AND/OR OBSTRUCTIONS TO VISIBILITY.

ARZ001-003-010-029-250700-
NORTHWEST ARKANSAS
  
CITY           SKY/WX    TMP DP  RH WIND       PRES   REMARKS
FAYETTEVILLE   PTCLDY    61  60  97 CALM      30.26S                  
6HR MIN TEMP:  61; 6HR MAX TEMP:  77;                                

FORT SMITH     CLOUDY    73  62  68 CALM      30.22R                  
6HR MIN TEMP:  73; 6HR MAX TEMP:  82;                                

HARRISON       CLEAR     61  53  75 W5        30.26R                  
6HR MIN TEMP:  60; 6HR MAX TEMP:  76;                                

BENTONVILLE    CLOUDY    70  52  52 CALM      30.26F                  
6HR MIN TEMP:  68; 6HR MAX TEMP:  75;                                

ROGERS         CLOUDY    66  55  67 CALM      30.27S                  
6HR MIN TEMP:  66; 6HR MAX TEMP:  76;                                

SILOAM SPGS    CLOUDY    68  54  60 CALM      30.25S                  
6HR MIN TEMP:  68; 6HR MAX TEMP:  79;                                

HIGHFILL       CLOUDY    67  57  70 CALM      30.26S                  
6HR MIN TEMP:  67; 6HR MAX TEMP:  78;                                

$$

ARZ004-005-016-250700-
NORTH CENTRAL ARKANSAS
  
CITY           SKY/WX    TMP DP  RH WIND       PRES   REMARKS
BATESVILLE     CLOUDY    64  61  88 NW5       30.21R                  
6HR MIN TEMP:  64; 6HR MAX TEMP:  79;                                

FLIPPIN        CLEAR     61  54  77 CALM      30.21S                  
6HR MIN TEMP:  61; 6HR MAX TEMP:  79;                                

$$

ARZ040-041-250700-
WEST CENTRAL ARKANSAS
  
CITY           SKY/WX    TMP DP  RH WIND       PRES   REMARKS
MENA           CLOUDY    68  66  94 CALM      30.23S                  
MOUNT IDA      CLOUDY    67  65  93 CALM      30.20R                  
6HR MIN TEMP:  67; 6HR MAX TEMP:  78;                                

$$

ARZ009-017-025-026-028-250700-
NORTHEAST ARKANSAS
  
CITY           SKY/WX    TMP DP  RH WIND       PRES   REMARKS
JONESBORO      PTCLDY    66  60  81 CALM      30.19S                  
6HR MIN TEMP:  65; 6HR MAX TEMP:  81;                                

WALNUT RIDGE   CLOUDY    66  59  77 NW5       30.20R                  
6HR MIN TEMP:  66; 6HR MAX TEMP:  77;                                

BLYTHEVILLE    CLEAR     66  63  90 CALM      30.19R                  
6HR MIN TEMP:  66; 6HR MAX TEMP:  79;                                

$$

ARZ022-023-033-042-044-250700-
CENTRAL ARKANSAS
  
CITY           SKY/WX    TMP DP  RH WIND       PRES   REMARKS
LITTLE ROCK    MOCLDY    70  60  70 NE6       30.19S                  
6HR MIN TEMP:  70; 6HR MAX TEMP:  79;                                

N LITTLE ROCK    N/A     70  58  66 N3        30.19S                  
6HR MIN TEMP:  70; 6HR MAX TEMP:  77;                                

JACKSONVILLE   MOCLDY    69  64  84 CALM      30.18S                  
6HR MIN TEMP:  69; 6HR MAX TEMP:  78;                                

CONWAY           N/A     70  66  88 CALM      30.18S                  
SEARCY         PTCLDY    68  65  90 CALM      30.21S                  
6HR MIN TEMP:  68; 6HR MAX TEMP:  79;                                

HOT SPRINGS    CLOUDY    72  57  59 NE7       30.20R                  
6HR MIN TEMP:  72; 6HR MAX TEMP:  79;                                

RUSSELLVILLE   CLOUDY    69  62  78 NW3       30.21R                  
6HR MIN TEMP:  68; 6HR MAX TEMP:  80;                                

CLINTON        FAIR      63  63 100 CALM      30.22R                  
$$

ARZ036-250700-
EAST ARKANSAS
  
CITY           SKY/WX    TMP DP  RH WIND       PRES   REMARKS
WEST MEMPHIS   CLOUDY    68  65  90 NE6       30.17S                  
6HR MIN TEMP:  68; 6HR MAX TEMP:  78;                                

$$

ARZ050-053-066-070-073-250700-
SOUTHWEST ARKANSAS
  
CITY           SKY/WX    TMP DP  RH WIND       PRES   REMARKS
CAMDEN         CLOUDY    68  66  94 CALM      30.17S                  
TEXARKANA      MOCLDY    69  67  93 CALM      30.18S                  
6HR MIN TEMP:  69; 6HR MAX TEMP:  78;                                

EL DORADO      CLOUDY    70  67  90 CALM      30.17R                  
6HR MIN TEMP:  70; 6HR MAX TEMP:  78;                                

DE QUEEN       CLEAR     69  67  93 CALM      30.18R                  
6HR MIN TEMP:  69; 6HR MAX TEMP:  80;                                

$$

ARZ056-057-069-250700-
SOUTHEAST ARKANSAS
  
CITY           SKY/WX    TMP DP  RH WIND       PRES   REMARKS
PINE BLUFF     PTCLDY    69  66  90 N6        30.17S                  
6HR MIN TEMP:  69; 6HR MAX TEMP:  77;                                

STUTTGART      CLOUDY    70  57  64 N6        30.19R                  
MONTICELLO     MOCLDY    71  65  81 CALM      30.17R                  
6HR MIN TEMP:  71; 6HR MAX TEMP:  78;                                


$$